Date,TemperatureHighF,TemperatureAvgF,TemperatureLowF,DewpointHighF,DewpointAvgF,DewpointLowF,HumidityHigh,HumidityAvg,HumidityLow,PressureMaxIn,PressureMinIn,WindSpeedMaxMPH,WindSpeedAvgMPH,GustSpeedMaxMPH,PrecipitationSumIn
2014-1-1,30,24,17,16,9,6,67,54,41,30.41,30.23,14,2,16,0.00
2014-1-2,25,20,9,18,15,5,86,82,68,30.31,29.70,20,5,30,0.00
2014-1-3,13,8,0,6,-2,-10,82,66,45,30.43,29.62,23,6,31,0.00
2014-1-4,26,13,-2,15,2,-12,71,60,44,30.53,30.32,15,4,29,0.00
2014-1-5,48,30,21,48,25,12,100,83,64,30.36,29.89,8,1,14,0.10
2014-1-6,55,44,29,55,42,15,100,92,55,29.88,29.41,27,5,34,0.54
2014-1-7,28,10,5,18,-10,-20,68,39,24,30.33,29.61,22,7,25,0.00
2014-1-8,21,12,4,2,-4,-12,58,48,33,30.52,30.32,8,3,14,0.00
2014-1-9,30,20,14,10,6,2,63,54,39,30.67,30.47,8,1,13,0.00
2014-1-10,40,31,21,40,27,9,100,88,57,30.62,30.28,3,0,4,0.14
2014-1-11,55,50,39,55,50,39,100,100,100,30.26,29.39,21,6,28,0.68
2014-1-12,50,42,32,50,34,24,100,74,56,30.07,29.41,20,3,22,0.05
2014-1-13,47,39,30,43,32,24,84,77,63,30.19,29.96,15,3,18,0.00
2014-1-14,48,45,40,46,43,39,100,96,85,29.96,29.68,13,1,15,0.92
2014-1-15,45,39,34,40,37,33,100,93,71,30.05,29.84,7,1,11,0.01
2014-1-16,40,37,35,38,36,34,100,95,85,29.95,29.86,7,0,10,0.00
2014-1-17,40,34,28,34,30,22,97,83,53,30.03,29.94,11,2,15,0.01
2014-1-18,40,34,28,37,32,23,97,90,79,29.93,29.62,14,1,14,0.01
2014-1-19,32,29,24,22,20,18,85,70,61,29.81,29.65,24,6,32,0.00
2014-1-20,41,36,26,28,23,13,77,60,50,29.90,29.58,14,2,17,0.00
2014-1-21,26,16,9,12,7,-1,84,67,43,30.04,29.81,13,1,18,0.00
2014-1-22,16,8,4,3,-6,-10,79,54,36,29.95,29.70,20,6,29,0.00
2014-1-23,18,9,-1,1,-5,-11,65,53,36,30.24,29.94,11,2,18,0.00
2014-1-24,18,10,2,2,-5,-8,69,52,33,30.34,30.11,13,3,17,0.00
2014-1-25,33,25,14,22,15,1,91,67,48,30.10,29.44,24,8,39,0.00
2014-1-26,24,18,13,17,6,-6,84,61,34,29.90,29.45,18,4,27,0.00
2014-1-27,43,32,19,34,20,-9,86,64,26,30.05,29.63,15,5,21,0.04
2014-1-28,20,15,11,-4,-9,-13,43,33,24,30.34,30.05,15,3,15,0.00
2014-1-29,24,16,12,8,-1,-10,80,49,22,30.27,30.05,13,2,15,0.00
2014-1-30,25,18,10,18,2,-7,85,50,30,30.47,30.21,14,2,14,0.00
2014-1-31,40,31,22,23,16,8,89,57,33,30.26,30.09,11,3,13,0.01
2014-2-1,41,36,32,36,22,16,93,59,42,30.37,30.07,8,2,13,0.00
2014-2-2,45,40,36,41,37,29,100,87,69,30.11,29.93,7,1,10,0.00
2014-2-3,38,31,26,31,28,24,96,88,67,30.31,30.10,11,1,17,0.01
2014-2-4,34,26,20,25,22,18,93,83,65,30.48,30.31,7,0,11,0.19
2014-2-5,32,28,25,31,26,22,97,93,84,30.31,29.65,10,2,18,0.01
2014-2-6,27,22,18,23,17,11,91,80,64,30.28,29.96,11,1,18,0.00
2014-2-7,31,23,15,18,13,9,77,65,40,30.32,30.21,10,2,14,0.00
2014-2-8,28,22,15,13,6,2,65,53,33,30.34,30.15,8,2,13,0.01
2014-2-9,30,23,16,21,9,2,92,57,35,30.18,29.99,10,3,11,0.00
2014-2-10,28,21,14,21,10,1,92,64,40,30.27,29.97,20,3,24,0.00
2014-2-11,24,17,12,4,1,-1,100,62,37,30.47,30.26,11,2,20,0.00
2014-2-12,25,17,6,17,3,-5,79,57,27,30.58,30.35,14,3,21,0.00
2014-2-13,33,29,23,32,27,17,99,94,79,30.34,29.00,17,5,27,0.00
2014-2-14,40,33,29,33,28,22,100,82,55,29.80,28.94,13,2,22,0.01
2014-2-15,34,30,27,28,24,20,95,78,62,29.84,29.55,24,3,29,0.00
2014-2-16,31,25,19,21,12,8,81,57,38,30.04,29.60,22,5,32,0.06
2014-2-17,30,20,13,8,-4,-8,60,35,19,30.39,30.05,15,4,27,0.00
2014-2-18,34,23,17,31,14,-5,94,71,35,30.36,29.94,10,1,10,0.01
2014-2-19,42,32,24,41,30,19,100,92,79,30.14,29.72,10,1,15,0.75
2014-2-20,48,38,32,35,27,15,100,69,27,30.27,29.95,11,2,14,0.34
2014-2-21,49,38,34,49,38,33,100,99,96,30.12,29.73,13,2,18,0.20
2014-2-22,47,40,34,38,30,21,100,72,36,30.07,29.93,20,5,25,0.01
2014-2-23,52,43,35,32,28,25,83,58,37,30.06,29.84,8,1,10,0.00
2014-2-24,41,32,22,32,13,4,73,47,30,30.04,29.80,18,4,27,0.00
2014-2-25,29,23,17,14,7,3,64,51,41,30.07,29.92,24,3,24,0.00
2014-2-26,29,20,11,18,4,-8,68,51,29,29.99,29.80,11,3,18,0.00
2014-2-27,30,19,8,15,0,-12,59,42,27,30.02,29.62,18,5,28,0.00
2014-2-28,24,14,6,-6,-11,-15,45,32,20,30.45,30.02,13,3,20,0.00
2014-3-1,35,24,12,24,6,-16,79,48,27,30.45,30.17,17,4,20,0.00
2014-3-2,36,32,27,27,22,12,92,67,49,30.17,30.01,11,2,13,0.00
2014-3-3,27,18,12,12,0,-6,62,44,33,30.32,30.03,17,5,28,0.00
2014-3-4,25,18,7,13,0,-8,65,46,27,30.43,30.27,13,3,14,0.00
2014-3-5,34,27,22,15,10,6,66,51,32,30.46,30.24,8,2,15,0.00
2014-3-6,30,20,10,12,0,-8,66,44,19,30.63,30.47,10,3,15,0.00
2014-3-7,36,28,17,22,16,6,69,61,53,30.52,29.94,8,2,13,0.00
2014-3-8,53,40,29,30,25,20,73,56,36,29.95,29.78,14,4,15,0.00
2014-3-9,40,35,30,27,14,9,67,42,34,29.99,29.90,15,3,22,0.00
2014-3-10,44,35,30,32,25,10,93,68,44,29.98,29.67,8,3,13,0.00
2014-3-11,60,47,36,37,32,27,94,60,30,29.76,29.57,10,2,18,0.00
2014-3-12,53,47,38,51,39,27,100,76,47,29.75,29.03,14,4,15,0.64
2014-3-13,38,21,15,38,8,-3,99,58,40,30.03,29.06,21,7,32,0.02
2014-3-14,38,26,14,27,11,0,71,53,32,30.24,29.99,21,6,25,0.00
2014-3-15,56,44,36,38,30,22,95,62,28,29.98,29.76,18,4,27,0.07
2014-3-16,40,31,25,26,9,-8,68,41,22,30.22,29.98,14,4,22,0.00
2014-3-17,33,25,20,8,0,-7,51,34,20,30.18,30.06,13,4,18,0.00
2014-3-18,41,29,19,23,9,-2,77,46,20,30.34,30.16,11,2,14,0.00
2014-3-19,41,33,24,37,25,18,98,73,50,30.37,29.92,15,4,20,0.26
2014-3-20,53,44,35,46,33,20,100,71,32,29.93,29.72,17,3,28,0.45
2014-3-21,47,38,30,22,19,15,65,47,29,30.10,29.87,15,3,24,0.00
2014-3-22,60,42,27,38,27,19,77,57,28,30.10,29.76,20,4,27,0.00
2014-3-23,41,34,24,24,16,1,75,51,27,30.11,29.98,17,3,25,0.00
2014-3-24,33,24,15,5,-1,-5,49,34,20,30.25,30.09,17,4,18,0.00
2014-3-25,34,28,18,16,9,3,56,46,35,30.19,29.88,17,3,21,0.00
2014-3-26,34,29,22,17,8,-4,62,42,24,30.15,29.71,28,8,36,0.00
2014-3-27,38,28,19,25,9,-2,70,44,20,30.40,30.15,24,5,31,0.00
2014-3-28,49,42,33,45,37,24,94,82,68,30.31,30.02,21,5,24,0.02
2014-3-29,50,45,41,47,43,38,99,92,73,30.26,29.88,13,2,18,1.49
2014-3-30,49,43,37,49,43,36,100,98,92,29.86,29.54,0,0,0,2.71
2014-3-31,39,36,32,36,33,27,100,88,72,30.04,29.70,20,2,22,0.45
2014-4-1,57,41,31,35,30,26,89,66,43,30.13,30.01,10,1,15,0.06
2014-4-2,50,42,35,39,34,27,92,77,49,30.16,30.07,15,2,17,0.00
2014-4-3,60,48,39,39,25,13,95,46,17,30.14,30.05,15,3,18,0.00
2014-4-4,47,40,36,37,29,22,97,66,40,30.15,29.80,21,2,28,0.10
2014-4-5,55,44,36,46,33,21,100,70,37,30.03,29.71,28,4,28,0.08
2014-4-6,54,42,28,27,22,13,74,47,21,30.23,30.03,20,3,20,0.00
2014-4-7,50,43,36,47,32,25,100,69,39,30.25,29.79,22,3,31,0.30
2014-4-8,60,51,45,57,47,34,100,88,54,29.79,29.40,21,4,24,0.45
2014-4-9,58,48,38,38,28,14,87,50,24,30.02,29.60,20,4,32,0.00
2014-4-10,52,44,34,37,23,16,73,45,30,30.22,30.02,20,5,25,0.00
2014-4-11,66,54,46,51,42,35,86,65,44,30.08,29.98,13,3,21,0.00
2014-4-12,66,55,43,48,38,26,97,59,22,30.26,30.01,15,3,20,0.00
2014-4-13,64,54,45,54,45,36,89,72,63,30.26,30.06,20,5,28,0.00
2014-4-14,67,58,54,57,54,51,98,85,68,30.09,29.95,34,10,36,0.00
2014-4-15,58,53,34,58,53,34,100,99,96,29.96,29.60,25,9,50,0.81
2014-4-16,45,35,28,34,20,11,98,58,27,30.59,29.83,20,5,29,0.20
2014-4-17,46,37,29,31,23,14,80,58,37,30.75,30.59,14,4,17,0.00
2014-4-18,45,37,29,35,29,24,90,74,53,30.62,30.27,11,3,14,0.00
2014-4-19,63,50,35,40,32,25,100,57,27,30.40,30.22,14,3,22,0.00
2014-4-20,53,45,36,30,26,17,76,48,24,30.51,30.35,15,3,20,0.00
2014-4-21,60,46,34,40,30,11,95,60,15,30.35,29.92,13,3,15,0.00
2014-4-22,62,52,44,49,45,39,96,79,57,29.92,29.50,22,5,22,0.03
2014-4-23,53,48,43,50,41,32,99,77,55,29.71,29.46,15,5,24,0.05
2014-4-24,57,48,39,30,18,13,61,33,18,29.97,29.71,15,6,29,0.00
2014-4-25,58,48,38,35,23,16,70,40,23,30.02,29.84,11,4,15,0.00
2014-4-26,52,44,41,47,42,35,100,91,74,29.87,29.75,7,2,8,0.52
2014-4-27,54,45,39,41,39,36,100,80,52,30.09,29.86,7,2,14,11.53
2014-4-28,62,49,39,41,38,35,88,69,45,30.18,30.01,8,3,17,0.00
2014-4-29,47,43,39,41,39,38,99,86,73,30.46,30.18,12,3,14,0.03
2014-4-30,48,41,38,48,41,38,100,99,94,30.47,30.07,14,4,19,1.43
2014-5-1,62,55,48,62,55,48,100,100,100,30.07,29.70,6,1,14,1.92
2014-5-2,62,55,48,54,44,41,100,69,49,29.84,29.71,11,2,17,0.02
2014-5-3,63,56,47,47,42,38,88,62,46,29.88,29.75,15,4,21,0.00
2014-5-4,64,54,47,49,41,32,100,65,33,29.75,29.58,25,6,25,0.02
2014-5-5,65,54,46,44,42,37,83,64,45,29.88,29.71,12,4,17,0.00
2014-5-6,62,54,45,42,38,32,86,56,35,30.06,29.87,12,3,15,0.00
2014-5-7,62,53,45,41,35,31,74,51,33,30.22,30.06,8,3,12,0.00
2014-5-8,53,50,46,53,49,41,100,96,78,30.20,30.11,1,0,4,0.20
2014-5-9,58,54,52,58,54,52,100,100,100,30.20,30.07,6,1,8,0.31
2014-5-10,76,63,55,68,61,55,100,94,69,30.07,29.84,10,3,11,0.17
2014-5-11,75,65,53,61,50,44,100,63,37,30.08,29.85,12,2,12,0.14
2014-5-12,78,66,56,60,50,40,89,58,35,30.13,30.04,24,4,24,0.00
2014-5-13,65,56,45,60,48,45,100,75,53,30.29,30.02,11,3,15,0.00
2014-5-14,59,52,43,56,50,43,100,92,80,30.31,30.26,7,2,11,0.00
2014-5-15,69,62,56,67,62,56,100,98,90,30.27,30.15,6,2,11,0.35
2014-5-16,63,61,58,63,61,58,100,100,100,30.15,29.88,11,4,14,0.02
2014-5-17,66,60,52,62,53,47,100,80,51,30.08,29.81,14,4,17,0.98
2014-5-18,68,57,46,46,41,38,86,58,36,30.13,30.03,8,4,15,0.00
2014-5-19,65,56,44,44,39,36,76,55,36,30.14,30.03,11,3,18,0.00
2014-5-20,73,61,49,47,43,40,81,55,30,30.07,29.94,8,2,11,0.00
2014-5-21,70,60,50,54,48,42,100,67,44,29.97,29.92,8,2,10,0.00
2014-5-22,56,54,52,56,54,52,100,100,100,29.92,29.82,4,1,7,0.68
2014-5-23,62,55,52,61,55,52,100,99,93,29.93,29.85,3,0,7,0.03
2014-5-24,63,56,50,56,54,50,100,92,76,30.05,29.90,7,1,7,0.02
2014-5-25,69,58,50,59,55,50,100,89,67,30.07,30.02,6,1,11,0.00
2014-5-26,79,65,52,63,57,52,100,78,43,30.04,29.85,15,2,15,0.01
2014-5-27,81,69,55,65,60,55,100,74,46,29.87,29.76,7,2,10,0.11
2014-5-28,55,49,46,52,49,46,100,99,97,30.17,29.84,7,2,10,0.13
2014-5-29,60,51,39,49,46,39,100,85,62,30.21,30.14,7,1,11,0.00
2014-5-30,67,55,44,58,52,44,100,90,68,30.15,29.98,8,2,11,0.10
2014-5-31,67,56,47,59,52,42,100,88,64,30.28,30.03,11,1,18,0.10
2014-6-1,71,60,46,55,47,40,98,66,37,30.33,30.25,11,2,12,0.00
2014-6-2,73,62,52,58,54,46,90,74,58,30.25,30.03,10,2,15,0.00
2014-6-3,78,65,54,67,61,54,100,88,69,30.04,29.86,6,1,10,0.00
2014-6-4,69,62,57,66,61,57,100,98,90,29.86,29.76,6,0,6,0.00
2014-6-5,64,59,57,63,59,57,100,99,91,29.78,29.62,4,1,10,0.61
2014-6-6,72,62,51,59,56,51,100,82,64,29.91,29.75,7,2,11,0.00
2014-6-7,78,66,54,62,59,54,100,79,55,29.97,29.91,8,2,12,0.00
2014-6-8,81,70,59,64,60,57,97,73,47,29.96,29.89,6,1,7,0.00
2014-6-9,68,61,58,63,60,58,100,97,78,30.00,29.92,4,1,6,0.96
2014-6-10,71,65,60,71,65,60,100,100,99,30.03,29.94,4,1,8,0.01
2014-6-11,69,62,58,62,57,53,100,86,65,30.13,30.03,6,1,11,0.00
2014-6-12,67,61,56,66,61,56,100,100,94,30.13,29.98,6,2,11,0.00
2014-6-13,73,66,62,73,66,62,100,100,100,29.96,29.75,6,1,12,0.14
2014-6-14,74,65,54,68,61,51,100,88,68,29.96,29.79,7,2,12,0.01
2014-6-15,75,63,51,61,57,51,100,82,62,30.07,29.96,8,2,12,0.00
2014-6-16,73,65,56,58,56,54,98,75,52,30.15,30.07,7,2,11,0.00
2014-6-17,76,68,59,73,67,57,100,96,87,30.09,29.89,7,2,8,0.00
2014-6-18,81,74,66,73,68,62,100,82,65,29.98,29.79,10,3,12,0.00
2014-6-19,74,66,61,70,65,60,100,96,84,30.01,29.94,15,2,17,0.56
2014-6-20,74,65,54,58,54,51,99,71,45,29.99,29.90,8,2,10,0.00
2014-6-21,70,61,51,55,52,48,92,73,52,29.98,29.89,6,2,10,0.00
2014-6-22,72,63,54,59,56,53,99,78,59,30.03,29.92,10,2,11,0.00
2014-6-23,74,64,54,65,60,54,100,86,66,30.18,30.03,11,2,12,0.00
2014-6-24,75,65,57,66,62,57,100,89,64,30.18,30.04,7,3,12,0.00
2014-6-25,74,69,62,74,69,62,100,99,95,30.04,29.86,10,4,19,0.00
2014-6-26,81,73,65,74,71,65,100,93,77,29.99,29.80,6,2,10,0.64
2014-6-27,76,66,57,66,61,57,100,86,64,30.21,29.99,6,1,7,0.00
2014-6-28,78,68,57,68,61,57,100,81,52,30.27,30.21,4,1,8,0.00
2014-6-29,77,68,60,65,60,57,100,79,58,30.26,30.12,10,2,11,0.00
2014-6-30,79,71,63,67,64,58,100,81,49,30.13,29.96,11,4,12,0.00
2014-7-1,81,74,66,72,69,66,100,86,71,29.97,29.84,11,4,12,0.00
2014-7-2,82,74,69,75,71,68,100,91,76,29.97,29.85,15,3,15,0.06
2014-7-3,82,75,66,75,72,66,100,91,73,30.02,29.90,8,2,8,0.31
2014-7-4,69,66,60,69,66,60,100,100,100,29.97,29.85,4,1,22,0.68
2014-7-5,78,68,58,58,53,49,100,64,40,30.06,29.88,7,2,12,0.00
2014-7-6,79,70,59,63,58,52,86,67,44,30.05,29.92,17,5,21,0.00
2014-7-7,82,73,66,70,67,63,93,80,68,29.92,29.74,10,4,12,0.00
2014-7-8,84,73,66,73,69,65,100,88,69,29.83,29.77,10,3,15,0.06
2014-7-9,81,74,68,69,67,62,98,81,54,29.93,29.71,8,2,22,0.00
2014-7-10,81,71,65,68,64,61,99,79,55,30.14,29.93,4,1,7,0.00
2014-7-11,80,69,64,65,61,58,97,76,56,30.19,30.12,3,1,11,0.00
2014-7-12,80,75,67,65,63,59,89,67,55,30.21,30.14,8,5,11,0.00
2014-7-13,76,71,66,71,68,64,100,91,77,30.14,29.93,12,4,17,0.00
2014-7-14,77,72,69,73,71,69,100,96,83,29.92,29.86,8,2,14,0.58
2014-7-15,75,72,69,75,72,69,100,100,100,29.86,29.74,8,2,14,0.51
2014-7-16,76,70,65,70,68,63,100,94,79,29.86,29.75,4,1,7,0.01
2014-7-17,77,69,62,63,60,57,95,76,50,30.08,29.86,8,1,10,0.00
2014-7-18,80,68,59,62,58,53,92,72,40,30.21,30.08,7,1,8,0.00
2014-7-19,74,66,60,64,60,57,99,84,64,30.25,30.18,3,0,8,0.00
2014-7-20,77,67,60,62,60,56,97,80,57,30.18,30.09,6,1,6,0.00
2014-7-21,80,68,58,65,62,58,100,82,52,30.18,30.12,4,1,7,0.00
2014-7-22,83,73,64,70,67,64,100,83,59,30.16,30.03,8,2,12,0.01
2014-7-23,82,74,67,74,69,64,98,85,75,30.03,29.78,12,3,17,0.09
2014-7-24,79,70,63,68,65,60,100,85,63,29.89,29.77,3,0,8,0.00
2014-7-25,79,67,60,62,59,56,100,77,49,30.00,29.88,4,1,11,0.00
2014-7-26,76,69,63,66,64,58,100,86,58,29.99,29.90,6,2,10,0.00
2014-7-27,77,72,67,72,70,65,100,95,85,29.90,29.66,11,2,14,0.03
2014-7-28,78,72,65,71,67,60,100,86,62,29.66,29.49,10,3,15,0.16
2014-7-29,74,66,60,61,58,56,89,76,55,29.95,29.60,4,1,12,0.00
2014-7-30,75,66,57,59,56,53,91,70,49,30.04,29.94,7,2,8,0.00
2014-7-31,77,69,62,66,62,58,100,80,52,30.16,30.04,8,2,12,0.00
2014-8-1,79,72,67,70,68,64,100,89,71,30.21,30.15,7,2,8,0.00
2014-8-2,68,64,59,68,64,59,100,98,92,30.20,30.09,3,0,11,0.21
2014-8-3,73,64,59,67,63,59,100,96,81,30.12,30.03,1,0,4,0.03
2014-8-4,78,70,64,70,67,64,100,91,71,30.05,30.01,14,3,14,0.00
2014-8-5,82,74,66,73,67,62,100,81,56,30.03,29.90,11,2,14,0.01
2014-8-6,80,70,64,65,62,58,95,75,50,29.91,29.80,6,1,8,0.00
2014-8-7,78,68,60,59,56,52,87,68,46,29.97,29.85,6,2,8,0.00
2014-8-8,79,68,56,59,56,52,91,68,43,30.04,29.96,7,1,11,0.00
2014-8-9,84,71,60,63,58,55,91,67,37,30.09,30.03,6,1,8,0.00
2014-8-10,85,73,64,64,59,51,89,66,31,30.12,30.07,4,1,8,0.00
2014-8-11,80,71,63,71,65,61,100,83,53,30.14,30.10,8,2,12,0.00
2014-8-12,75,69,63,69,66,63,100,90,68,30.11,29.97,8,2,14,0.01
2014-8-13,75,68,63,72,67,62,100,97,85,29.93,29.61,7,2,12,3.47
2014-8-14,74,65,57,62,56,51,96,75,46,29.84,29.72,7,2,8,0.01
2014-8-15,67,60,54,62,55,51,99,85,56,29.89,29.83,4,2,7,0.00
2014-8-16,67,65,64,62,62,61,92,90,84,29.93,29.90,1,0,6,0.00
2014-8-17,76,69,62,65,62,56,100,79,61,29.88,29.78,7,2,8,0.00
2014-8-18,77,66,57,59,56,49,97,71,45,29.87,29.80,7,1,8,0.00
2014-8-19,75,66,55,62,56,51,99,72,49,29.94,29.86,8,1,10,0.00
2014-8-20,78,68,60,68,62,58,100,85,52,30.02,29.93,3,1,12,0.01
2014-8-21,76,68,61,67,64,61,100,87,65,30.06,30.02,4,1,7,0.00
2014-8-22,70,65,60,64,63,60,100,94,83,30.06,30.02,1,1,4,0.07
2014-8-23,72,66,57,62,60,56,94,82,66,30.11,30.07,1,0,10,0.00
2014-8-24,77,64,56,62,58,53,98,80,57,30.13,30.09,4,1,6,0.01
2014-8-25,86,71,60,67,64,59,97,79,49,30.15,30.09,6,1,10,0.00
2014-8-26,80,70,63,70,66,63,100,87,62,30.16,30.06,6,1,8,0.01
2014-8-27,82,72,64,69,66,63,100,83,61,30.06,29.87,10,2,14,0.00
2014-8-28,77,69,62,67,60,54,93,74,49,30.00,29.81,7,2,10,0.00
2014-8-29,74,64,55,57,55,52,94,75,53,30.25,30.00,6,1,8,0.00
2014-8-30,72,66,57,66,61,56,100,86,68,30.27,30.14,8,2,11,0.00
2014-8-31,80,73,69,75,71,66,100,95,85,30.14,29.97,6,3,14,0.09
2014-9-1,82,76,72,75,72,72,100,91,71,29.99,29.92,11,2,12,0.00
2014-9-2,85,77,71,78,74,71,100,89,72,29.94,29.75,8,3,8,0.01
2014-9-3,81,73,65,72,62,58,87,71,48,30.09,29.75,11,2,11,0.00
2014-9-4,80,72,61,68,62,56,94,73,48,30.19,30.10,4,1,11,0.00
2014-9-5,80,73,66,73,70,66,100,90,74,30.17,30.04,7,2,17,0.00
2014-9-6,82,75,68,76,71,60,100,87,74,29.93,29.80,10,4,12,0.00
2014-9-7,78,67,60,65,59,52,100,78,48,30.18,29.91,4,1,12,0.07
2014-9-8,72,63,57,60,58,52,100,84,62,30.32,30.18,7,1,10,0.00
2014-9-9,69,62,55,62,58,52,95,85,76,30.29,30.14,4,1,10,0.00
2014-9-10,73,63,57,63,60,56,100,89,65,30.14,30.02,6,1,10,0.00
2014-9-11,74,68,61,71,66,57,100,94,80,30.02,29.81,10,2,15,0.00
2014-9-12,74,62,55,56,54,51,90,74,51,30.18,29.92,6,1,8,0.00
2014-9-13,65,58,54,57,54,50,100,87,73,30.21,30.08,7,1,11,0.37
2014-9-14,67,56,48,54,50,47,100,84,55,30.22,30.11,14,2,14,0.02